^^
Saratoga-Weather Station Historical Data
Daily Summary for August 24, 2020 Units:  Metric    English   Both
Daily Weekly Monthly Yearly Custom
  High: Low: Average:
Temperature: 30.5 °C 15.1 °C 23.3 °C
Dew Point: 15 °C 10.3 °C 12.6 °C
Humidity: 80% 32% 54%
Wind Speed: 19.5km/h 0km/h 3.1km/h
Wind Gust: 24.1km/h - -
Wind- - East
Pressure: 1021.0 hPa 1016.9 hPa -
Precipitation: 0.0 mm    
Historical Graphs
 
 
Tabular Data for August 24, 2020
Time Temperature Dew Point Pressure Wind Wind Speed Wind Gust Humidity Rainfall Rate (Hourly) solar
00:04 18.2 °C 12.4 °C 1021.0 hPa Calm     69% 0.0 mm 0 W/m2
00:09 18.2 °C 12.6 °C 1021.0 hPa Calm     70% 0.0 mm 0 W/m2
00:14 18.1 °C 12.5 °C 1021.0 hPa Calm     70% 0.0 mm 0 W/m2
00:19 18 °C 12.7 °C 1021.0 hPa East 1.4 km/h 3.2 km/h 71% 0.0 mm 0 W/m2
00:29 17.9 °C 12.8 °C 1021.0 hPa Calm   1.6 km/h 72% 0.0 mm 0 W/m2
00:34 17.9 °C 12.6 °C 1021.0 hPa Calm   3.2 km/h 71% 0.0 mm 0 W/m2
00:39 17.9 °C 12.8 °C 1021.0 hPa Calm     72% 0.0 mm 0 W/m2
00:44 17.9 °C 13 °C 1021.0 hPa Calm   3.2 km/h 73% 0.0 mm 0 W/m2
00:49 17.9 °C 12.8 °C 1021.0 hPa Calm   3.2 km/h 72% 0.0 mm 0 W/m2
00:54 17.8 °C 12.9 °C 1021.0 hPa East 1.4 km/h 1.6 km/h 73% 0.0 mm 0 W/m2
00:59 17.8 °C 12.9 °C 1021.0 hPa East 1.4 km/h 1.6 km/h 73% 0.0 mm 0 W/m2
01:04 17.8 °C 12.9 °C 1021.0 hPa Calm   1.6 km/h 73% 0.0 mm 0 W/m2
01:09 17.7 °C 12.8 °C 1021.0 hPa East 1.4 km/h 3.2 km/h 73% 0.0 mm 0 W/m2
01:14 17.6 °C 12.9 °C 1021.0 hPa East 1.4 km/h 4.8 km/h 74% 0.0 mm 0 W/m2
01:19 17.6 °C 12.9 °C 1021.0 hPa Calm     74% 0.0 mm 0 W/m2
01:24 17.7 °C 12.8 °C 1021.0 hPa Calm   4.8 km/h 73% 0.0 mm 0 W/m2
01:29 17.7 °C 12.8 °C 1021.0 hPa Calm   3.2 km/h 73% 0.0 mm 0 W/m2
01:34 17.7 °C 13 °C 1021.0 hPa Calm   1.6 km/h 74% 0.0 mm 0 W/m2
01:39 17.7 °C 13 °C 1020.7 hPa Calm   3.2 km/h 74% 0.0 mm 0 W/m2
01:44 17.6 °C 12.9 °C 1020.7 hPa Calm   1.6 km/h 74% 0.0 mm 0 W/m2
01:49 17.6 °C 12.9 °C 1020.7 hPa SSE 1.4 km/h 1.6 km/h 74% 0.0 mm 0 W/m2
01:54 17.4 °C 12.7 °C 1020.7 hPa Calm     74% 0.0 mm 0 W/m2
01:59 17.3 °C 12.8 °C 1020.7 hPa Calm   3.2 km/h 75% 0.0 mm 0 W/m2
02:04 17.2 °C 12.7 °C 1021.0 hPa Calm     75% 0.0 mm 0 W/m2
02:09 17.1 °C 12.8 °C 1020.7 hPa Calm   1.6 km/h 76% 0.0 mm 0 W/m2
02:14 16.9 °C 12.6 °C 1020.7 hPa SSE 1.4 km/h 1.6 km/h 76% 0.0 mm 0 W/m2
02:19 16.8 °C 12.7 °C 1020.7 hPa SSE 1.4 km/h 3.2 km/h 77% 0.0 mm 0 W/m2
02:24 16.8 °C 12.7 °C 1020.7 hPa Calm     77% 0.0 mm 0 W/m2
02:29 16.7 °C 12.8 °C 1020.7 hPa Calm     78% 0.0 mm 0 W/m2
02:34 16.6 °C 12.7 °C 1020.7 hPa Calm     78% 0.0 mm 0 W/m2
02:39 16.5 °C 12.7 °C 1020.7 hPa Calm   1.6 km/h 78% 0.0 mm 0 W/m2
02:44 16.4 °C 12.6 °C 1020.7 hPa SSE 1.4 km/h 1.6 km/h 78% 0.0 mm 0 W/m2
02:49 16.3 °C 12.5 °C 1020.7 hPa Calm   3.2 km/h 78% 0.0 mm 0 W/m2
02:54 16.3 °C 12.5 °C 1020.7 hPa Calm     78% 0.0 mm 0 W/m2
02:59 16.2 °C 12.4 °C 1020.7 hPa Calm   3.2 km/h 78% 0.0 mm 0 W/m2
03:09 16.1 °C 12.3 °C 1020.7 hPa Calm     78% 0.0 mm 0 W/m2
03:14 16 °C 12.4 °C 1020.7 hPa Calm   1.6 km/h 79% 0.0 mm 0 W/m2
03:24 15.9 °C 12.3 °C 1020.3 hPa Calm   1.6 km/h 79% 0.0 mm 0 W/m2
03:29 15.9 °C 12.3 °C 1020.3 hPa Calm     79% 0.0 mm 0 W/m2
03:34 15.8 °C 12.2 °C 1020.3 hPa SSE 3.2 km/h 3.2 km/h 79% 0.0 mm 0 W/m2
03:39 15.8 °C 12.4 °C 1020.3 hPa SSE 1.4 km/h 1.6 km/h 80% 0.0 mm 0 W/m2
03:44 15.7 °C 12.3 °C 1020.3 hPa Calm   3.2 km/h 80% 0.0 mm 0 W/m2
03:49 15.6 °C 12 °C 1020.3 hPa Calm   1.6 km/h 79% 0.0 mm 0 W/m2
03:54 15.6 °C 12.2 °C 1020.0 hPa Calm   3.2 km/h 80% 0.0 mm 0 W/m2
03:59 15.7 °C 12.1 °C 1020.3 hPa Calm   3.2 km/h 79% 0.0 mm 0 W/m2
04:04 15.7 °C 12.1 °C 1020.0 hPa SSE 1.4 km/h 3.2 km/h 79% 0.0 mm 0 W/m2
04:09 15.7 °C 12.1 °C 1020.0 hPa Calm   1.6 km/h 79% 0.0 mm 0 W/m2
04:20 15.6 °C 12 °C 1020.0 hPa Calm     79% 0.0 mm 0 W/m2
04:25 15.5 °C 11.9 °C 1020.0 hPa Calm     79% 0.0 mm 0 W/m2
04:30 15.4 °C 11.8 °C 1020.0 hPa Calm   1.6 km/h 79% 0.0 mm 0 W/m2
04:35 15.3 °C 11.9 °C 1020.0 hPa Calm     80% 0.0 mm 0 W/m2
04:40 15.2 °C 11.8 °C 1020.0 hPa Calm     80% 0.0 mm 0 W/m2
04:45 15.2 °C 11.8 °C 1020.0 hPa SSE 1.4 km/h 3.2 km/h 80% 0.0 mm 0 W/m2
04:50 15.2 °C 11.8 °C 1020.0 hPa Calm     80% 0.0 mm 0 W/m2
04:55 15.1 °C 11.7 °C 1020.0 hPa SSE 1.4 km/h 1.6 km/h 80% 0.0 mm 0 W/m2
05:00 15.2 °C 11.6 °C 1020.0 hPa SSE 1.4 km/h 3.2 km/h 79% 0.0 mm 0 W/m2
05:05 15.2 °C 11.6 °C 1020.0 hPa SE 3.2 km/h 4.8 km/h 79% 0.0 mm 0 W/m2
05:10 15.3 °C 11.9 °C 1020.0 hPa Calm   1.6 km/h 80% 0.0 mm 0 W/m2
05:15 15.3 °C 11.9 °C 1020.0 hPa SE 4.8 km/h 4.8 km/h 80% 0.0 mm 0 W/m2
05:20 15.3 °C 11.7 °C 1020.0 hPa Calm     79% 0.0 mm 0 W/m2
05:25 15.2 °C 11.6 °C 1020.0 hPa Calm     79% 0.0 mm 0 W/m2
05:30 15.2 °C 11.8 °C 1020.0 hPa Calm   4.8 km/h 80% 0.0 mm 0 W/m2
05:35 15.2 °C 11.8 °C 1020.0 hPa Calm   1.6 km/h 80% 0.0 mm 5 W/m2
05:40 15.2 °C 11.6 °C 1020.0 hPa SE 1.4 km/h 3.2 km/h 79% 0.0 mm 7 W/m2
05:45 15.3 °C 11.7 °C 1020.0 hPa Calm   3.2 km/h 79% 0.0 mm 9 W/m2
05:50 15.4 °C 11.6 °C 1020.0 hPa ESE 1.4 km/h 1.6 km/h 78% 0.0 mm 11 W/m2
05:55 15.5 °C 11.7 °C 1020.0 hPa Calm   1.6 km/h 78% 0.0 mm 12 W/m2
06:00 15.6 °C 11.8 °C 1020.3 hPa Calm   3.2 km/h 78% 0.0 mm 14 W/m2
06:05 15.7 °C 11.9 °C 1020.3 hPa Calm     78% 0.0 mm 16 W/m2
06:10 15.7 °C 11.9 °C 1020.3 hPa Calm   1.6 km/h 78% 0.0 mm 18 W/m2
06:15 15.8 °C 11.8 °C 1020.3 hPa Calm   3.2 km/h 77% 0.0 mm 21 W/m2
06:20 15.9 °C 11.9 °C 1020.3 hPa SSE 1.4 km/h 1.6 km/h 77% 0.0 mm 21 W/m2
06:25 16.1 °C 11.9 °C 1020.3 hPa Calm   8 km/h 76% 0.0 mm 23 W/m2
06:30 16.2 °C 12 °C 1020.3 hPa Calm   1.6 km/h 76% 0.0 mm 25 W/m2
06:40 16.4 °C 11.8 °C 1020.3 hPa Calm   1.6 km/h 74% 0.0 mm 28 W/m2
06:45 16.5 °C 12.1 °C 1020.3 hPa East 1.4 km/h 1.6 km/h 75% 0.0 mm 28 W/m2
06:50 16.6 °C 12.1 °C 1020.3 hPa East 1.4 km/h 3.2 km/h 75% 0.0 mm 30 W/m2
06:55 16.6 °C 11.9 °C 1020.3 hPa Calm     74% 0.0 mm 32 W/m2
07:00 16.7 °C 11.8 °C 1020.3 hPa Calm     73% 0.0 mm 32 W/m2
07:05 16.8 °C 11.7 °C 1020.3 hPa ENE 1.4 km/h 3.2 km/h 72% 0.0 mm 33 W/m2
07:10 17.1 °C 12 °C 1020.3 hPa Calm   3.2 km/h 72% 0.0 mm 33 W/m2
07:15 17.2 °C 11.9 °C 1020.0 hPa ENE 3.2 km/h 3.2 km/h 71% 0.0 mm 35 W/m2
07:20 17.2 °C 11.9 °C 1020.3 hPa Calm     71% 0.0 mm 35 W/m2
07:25 17.3 °C 12.2 °C 1020.3 hPa Calm   3.2 km/h 72% 0.0 mm 37 W/m2
07:30 17.4 °C 12.1 °C 1020.3 hPa East 1.4 km/h 1.6 km/h 71% 0.0 mm 37 W/m2
07:35 17.5 °C 12.2 °C 1020.3 hPa East 1.4 km/h 1.6 km/h 71% 0.0 mm 58 W/m2
07:40 17.6 °C 12.5 °C 1020.3 hPa Calm     72% 0.0 mm 169 W/m2
07:45 17.8 °C 12.3 °C 1020.3 hPa Calm   1.6 km/h 70% 0.0 mm 239 W/m2
07:50 18.1 °C 12.5 °C 1020.3 hPa Calm     70% 0.0 mm 251 W/m2
07:55 18.4 °C 12.8 °C 1020.3 hPa Calm     70% 0.0 mm 264 W/m2
08:00 18.9 °C 12.9 °C 1020.3 hPa Calm   1.6 km/h 68% 0.0 mm 278 W/m2
08:05 19.4 °C 13.1 °C 1020.3 hPa NNW 3.2 km/h 6.4 km/h 67% 0.0 mm 288 W/m2
08:10 19.9 °C 13.1 °C 1020.3 hPa ESE 3.2 km/h 6.4 km/h 65% 0.0 mm 243 W/m2
08:15 20.2 °C 13.2 °C 1020.3 hPa ENE 3.2 km/h 4.8 km/h 64% 0.0 mm 95 W/m2
08:20 20.5 °C 13.2 °C 1020.3 hPa ENE 1.4 km/h 6.4 km/h 63% 0.0 mm 49 W/m2
08:25 20.8 °C 13.3 °C 1020.3 hPa NE 3.2 km/h 8 km/h 62% 0.0 mm 49 W/m2
08:30 21.1 °C 13.3 °C 1020.3 hPa NE 6.4 km/h 8 km/h 61% 0.0 mm 49 W/m2
08:35 21.3 °C 13.5 °C 1020.3 hPa NE 3.2 km/h 6.4 km/h 61% 0.0 mm 47 W/m2
08:40 21.5 °C 13.4 °C 1020.3 hPa ESE 4.7 km/h 12.9 km/h 60% 0.0 mm 47 W/m2
08:45 21.7 °C 13.3 °C 1020.3 hPa ENE 4.7 km/h 14.5 km/h 59% 0.0 mm 49 W/m2
08:50 21.8 °C 13.7 °C 1020.3 hPa ESE 3.2 km/h 9.7 km/h 60% 0.0 mm 49 W/m2
08:55 21.8 °C 13.7 °C 1020.3 hPa NE 1.4 km/h 4.8 km/h 60% 0.0 mm 47 W/m2
09:00 21.9 °C 13.8 °C 1020.3 hPa East 1.4 km/h 4.8 km/h 60% 0.0 mm 83 W/m2
09:05 21.9 °C 13.5 °C 1020.3 hPa East 6.4 km/h 8 km/h 59% 0.0 mm 285 W/m2
09:10 22.1 °C 14 °C 1020.3 hPa East 3.2 km/h 3.2 km/h 60% 0.0 mm 369 W/m2
09:15 22.3 °C 13.9 °C 1020.3 hPa ENE 3.2 km/h 6.4 km/h 59% 0.0 mm 466 W/m2
09:20 22.5 °C 13.8 °C 1020.3 hPa ENE 1.4 km/h 11.3 km/h 58% 0.0 mm 489 W/m2
09:25 22.6 °C 13.9 °C 1020.3 hPa ENE 7.9 km/h 14.5 km/h 58% 0.0 mm 501 W/m2
09:30 22.7 °C 14 °C 1020.3 hPa ESE 4.7 km/h 6.4 km/h 58% 0.0 mm 515 W/m2
09:35 22.7 °C 14 °C 1020.3 hPa NE 11.3 km/h 11.3 km/h 58% 0.0 mm 527 W/m2
09:40 22.9 °C 14.5 °C 1020.3 hPa NE 4.7 km/h 8 km/h 59% 0.0 mm 538 W/m2
09:45 23.3 °C 14.8 °C 1020.3 hPa NE 11.1 km/h 11.3 km/h 59% 0.0 mm 554 W/m2
09:50 23.6 °C 14.3 °C 1020.0 hPa NNE 6.4 km/h 11.3 km/h 56% 0.0 mm 563 W/m2
09:55 23.8 °C 14.2 °C 1020.0 hPa ENE 3.2 km/h 9.7 km/h 55% 0.0 mm 578 W/m2
10:00 24.2 °C 13.7 °C 1020.0 hPa ENE 4.7 km/h 16.1 km/h 52% 0.0 mm 594 W/m2
10:05 24.3 °C 14.1 °C 1020.0 hPa East 3.2 km/h 4.8 km/h 53% 0.0 mm 605 W/m2
10:10 24.4 °C 13.9 °C 1020.0 hPa East 1.4 km/h 16.1 km/h 52% 0.0 mm 582 W/m2
10:15 24.7 °C 13.9 °C 1020.0 hPa ESE 6.4 km/h 11.3 km/h 51% 0.0 mm 65 W/m2
10:20 24.7 °C 13.9 °C 1020.0 hPa NE 4.7 km/h 11.3 km/h 51% 0.0 mm 640 W/m2
10:25 24.8 °C 13.7 °C 1020.0 hPa SSE 4.7 km/h 19.3 km/h 50% 0.0 mm 652 W/m2
10:30 24.8 °C 13.7 °C 1020.0 hPa NE 3.2 km/h 11.3 km/h 50% 0.0 mm 663 W/m2
10:35 25 °C 13.9 °C 1020.0 hPa ESE 3.2 km/h 19.3 km/h 50% 0.0 mm 675 W/m2
10:40 25.2 °C 14 °C 1020.0 hPa East 1.4 km/h 11.3 km/h 50% 0.0 mm 686 W/m2
10:45 25.3 °C 13.8 °C 1019.6 hPa NE 4.7 km/h 8 km/h 49% 0.0 mm 700 W/m2
10:50 25.3 °C 13.8 °C 1019.6 hPa ENE 7.9 km/h 12.9 km/h 49% 0.0 mm 710 W/m2
10:55 25.5 °C 13.7 °C 1019.6 hPa NE 7.9 km/h 16.1 km/h 48% 0.0 mm 721 W/m2
11:00 25.7 °C 13.5 °C 1019.6 hPa NE 3.2 km/h 14.5 km/h 47% 0.0 mm 729 W/m2
11:05 25.7 °C 13.5 °C 1019.6 hPa East 7.9 km/h 19.3 km/h 47% 0.0 mm 738 W/m2
11:10 25.9 °C 14 °C 1019.6 hPa South 3.2 km/h 11.3 km/h 48% 0.0 mm 751 W/m2
11:15 26.2 °C 14 °C 1019.6 hPa NE 4.7 km/h 8 km/h 47% 0.0 mm 758 W/m2
11:20 26.3 °C 13.8 °C 1019.6 hPa SSW 1.4 km/h 8 km/h 46% 0.0 mm 766 W/m2
11:25 26.4 °C 13.8 °C 1019.6 hPa East 6.4 km/h 8 km/h 46% 0.0 mm 779 W/m2
11:30 26.5 °C 13.6 °C 1019.6 hPa ENE 6.4 km/h 11.3 km/h 45% 0.0 mm 784 W/m2
11:35 26.6 °C 13.3 °C 1019.6 hPa ESE 9.7 km/h 16.1 km/h 44% 0.0 mm 788 W/m2
11:40 26.6 °C 12.6 °C 1019.6 hPa ESE 1.4 km/h 12.9 km/h 42% 0.0 mm 803 W/m2
11:45 26.7 °C 13.1 °C 1019.6 hPa East 3.2 km/h 8 km/h 43% 0.0 mm 812 W/m2
11:50 26.8 °C 13.2 °C 1019.6 hPa ENE 4.7 km/h 11.3 km/h 43% 0.0 mm 816 W/m2
11:55 27.1 °C 13.4 °C 1019.6 hPa ESE 6.4 km/h 6.4 km/h 43% 0.0 mm 824 W/m2
12:00 27.3 °C 13.6 °C 1019.6 hPa East 11.1 km/h 11.3 km/h 43% 0.0 mm 835 W/m2
12:05 27.5 °C 13.4 °C 1019.6 hPa ESE 6.4 km/h 14.5 km/h 42% 0.0 mm 837 W/m2
12:10 27.7 °C 14 °C 1019.3 hPa ENE 13 km/h 12.9 km/h 43% 0.0 mm 849 W/m2
12:15 27.8 °C 12.2 °C 1019.3 hPa SSE 6.4 km/h 16.1 km/h 38% 0.0 mm 860 W/m2
12:20 27.8 °C 12.6 °C 1019.3 hPa NE 3.2 km/h 8 km/h 39% 0.0 mm 865 W/m2
12:25 27.6 °C 12.8 °C 1019.3 hPa SE 3.2 km/h 24.1 km/h 40% 0.0 mm 865 W/m2
12:30 27.7 °C 12.9 °C 1019.3 hPa SE 3.2 km/h 16.1 km/h 40% 0.0 mm 868 W/m2
12:35 27.8 °C 13.3 °C 1019.3 hPa East 3.2 km/h 12.9 km/h 41% 0.0 mm 870 W/m2
12:41 27.8 °C 13 °C 1019.3 hPa ENE 4.7 km/h 4.8 km/h 40% 0.0 mm 872 W/m2
12:46 27.9 °C 13.4 °C 1019.3 hPa NE 3.2 km/h 9.7 km/h 41% 0.0 mm 877 W/m2
12:51 28 °C 12.8 °C 1019.3 hPa North 6.4 km/h 17.7 km/h 39% 0.0 mm 886 W/m2
12:56 28 °C 12.4 °C 1019.0 hPa East 1.4 km/h 11.3 km/h 38% 0.0 mm 889 W/m2
13:01 28 °C 12.4 °C 1019.3 hPa North 4.7 km/h 19.3 km/h 38% 0.0 mm 893 W/m2
13:06 28.1 °C 13.2 °C 1019.0 hPa East 6.4 km/h 6.4 km/h 40% 0.0 mm 888 W/m2
13:11 28.2 °C 13.3 °C 1019.0 hPa SE 4.7 km/h 17.7 km/h 40% 0.0 mm 860 W/m2
13:16 28.2 °C 13.3 °C 1019.0 hPa SE 14.3 km/h 17.7 km/h 40% 0.0 mm 867 W/m2
13:21 28.2 °C 12.9 °C 1019.0 hPa NE 3.2 km/h 6.4 km/h 39% 0.0 mm 877 W/m2
13:26 28.3 °C 14.2 °C 1019.0 hPa East 4.7 km/h 14.5 km/h 42% 0.0 mm 879 W/m2
13:31 28.3 °C 13.4 °C 1019.0 hPa NE 6.4 km/h 17.7 km/h 40% 0.0 mm 882 W/m2
13:36 28.4 °C 14.2 °C 1019.0 hPa ENE 3.2 km/h 11.3 km/h 42% 0.0 mm 891 W/m2
13:41 28.4 °C 13.5 °C 1019.0 hPa ESE 1.4 km/h 17.7 km/h 40% 0.0 mm 905 W/m2
13:46 28.4 °C 13.9 °C 1019.0 hPa ENE 7.9 km/h 12.9 km/h 41% 0.0 mm 904 W/m2
13:51 28.3 °C 13.4 °C 1019.0 hPa ENE 7.9 km/h 11.3 km/h 40% 0.0 mm 907 W/m2
13:56 28.4 °C 14.6 °C 1019.0 hPa NE 1.4 km/h 14.5 km/h 43% 0.0 mm 904 W/m2
14:01 28.6 °C 14.4 °C 1019.0 hPa ENE 1.4 km/h 16.1 km/h 42% 0.0 mm 902 W/m2
14:06 28.7 °C 13.4 °C 1018.6 hPa NNW 1.4 km/h 11.3 km/h 39% 0.0 mm 904 W/m2
14:11 28.7 °C 13.8 °C 1018.6 hPa ENE 13 km/h 19.3 km/h 40% 0.0 mm 900 W/m2
14:16 28.7 °C 14.1 °C 1018.6 hPa North 4.7 km/h 14.5 km/h 41% 0.0 mm 900 W/m2
14:21 28.8 °C 13.9 °C 1018.6 hPa East 3.2 km/h 19.3 km/h 40% 0.0 mm 898 W/m2
14:26 28.8 °C 13.9 °C 1018.3 hPa NE 3.2 km/h 11.3 km/h 40% 0.0 mm 895 W/m2
14:31 28.9 °C 13.9 °C 1018.3 hPa NNW 4.7 km/h 16.1 km/h 40% 0.0 mm 891 W/m2
14:36 29.2 °C 13.4 °C 1018.3 hPa NE 9.7 km/h 11.3 km/h 38% 0.0 mm 889 W/m2
14:43 29.2 °C 14.2 °C 1018.3 hPa North 1.4 km/h 3.2 km/h 40% 0.0 mm 886 W/m2
14:46 29.6 °C 15 °C 1018.3 hPa ESE 3.2 km/h 9.7 km/h 41% 0.0 mm 888 W/m2
14:51 29.7 °C 13.5 °C 1018.3 hPa NE 4.7 km/h 14.5 km/h 37% 0.0 mm 882 W/m2
14:56 29.6 °C 14.2 °C 1018.3 hPa NNE 4.7 km/h 4.8 km/h 39% 0.0 mm 870 W/m2
15:01 29.6 °C 14.2 °C 1018.3 hPa ENE 3.2 km/h 8 km/h 39% 0.0 mm 868 W/m2
15:06 29.7 °C 13.9 °C 1018.3 hPa ENE 4.7 km/h 8 km/h 38% 0.0 mm 872 W/m2
15:11 29.8 °C 14 °C 1018.3 hPa ENE 6.4 km/h 11.3 km/h 38% 0.0 mm 861 W/m2
15:16 29.7 °C 14.3 °C 1018.3 hPa East 4.7 km/h 16.1 km/h 39% 0.0 mm 858 W/m2
15:21 29.7 °C 13.5 °C 1018.3 hPa East 1.4 km/h 6.4 km/h 37% 0.0 mm 846 W/m2
15:27 29.8 °C 14 °C 1018.0 hPa ENE 3.2 km/h 16.1 km/h 38% 0.0 mm 847 W/m2
15:32 30.1 °C 13.8 °C 1018.0 hPa East 9.7 km/h 9.7 km/h 37% 0.0 mm 840 W/m2
15:37 30 °C 13.7 °C 1018.0 hPa ENE 3.2 km/h 16.1 km/h 37% 0.0 mm 831 W/m2
15:42 29.9 °C 13.2 °C 1018.0 hPa ENE 9.7 km/h 9.7 km/h 36% 0.0 mm 823 W/m2
15:47 29.8 °C 13.5 °C 1018.0 hPa SE 1.4 km/h 4.8 km/h 37% 0.0 mm 810 W/m2
15:52 30.1 °C 13.4 °C 1018.0 hPa ENE 3.2 km/h 3.2 km/h 36% 0.0 mm 810 W/m2
15:57 30.1 °C 12.5 °C 1018.0 hPa NNE 11.1 km/h 17.7 km/h 34% 0.0 mm 802 W/m2
16:02 29.9 °C 12.3 °C 1018.0 hPa East 4.7 km/h 12.9 km/h 34% 0.0 mm 795 W/m2
16:07 29.8 °C 12.2 °C 1018.0 hPa SSE 7.9 km/h 19.3 km/h 34% 0.0 mm 788 W/m2
16:12 29.9 °C 13.2 °C 1018.0 hPa ENE 3.2 km/h 8 km/h 36% 0.0 mm 773 W/m2
16:17 30.1 °C 13 °C 1018.0 hPa NE 11.1 km/h 17.7 km/h 35% 0.0 mm 765 W/m2
16:22 30.1 °C 12.5 °C 1018.0 hPa ENE 9.7 km/h 22.5 km/h 34% 0.0 mm 754 W/m2
16:28 30 °C 13.3 °C 1018.0 hPa SE 1.4 km/h 4.8 km/h 36% 0.0 mm 749 W/m2
16:33 30.1 °C 12.5 °C 1018.0 hPa ENE 3.2 km/h 19.3 km/h 34% 0.0 mm 731 W/m2
16:38 30 °C 12.4 °C 1018.0 hPa East 14.3 km/h 17.7 km/h 34% 0.0 mm 722 W/m2
16:43 30 °C 12.9 °C 1018.0 hPa ENE 7.9 km/h 8 km/h 35% 0.0 mm 715 W/m2
16:48 30.1 °C 12.5 °C 1018.0 hPa NE 4.7 km/h 12.9 km/h 34% 0.0 mm 703 W/m2
16:53 30.1 °C 13 °C 1018.0 hPa North 9.7 km/h 9.7 km/h 35% 0.0 mm 691 W/m2
16:58 30.2 °C 13.9 °C 1018.0 hPa NE 9.7 km/h 12.9 km/h 37% 0.0 mm 680 W/m2
17:03 30.3 °C 13.6 °C 1017.6 hPa NE 1.4 km/h 6.4 km/h 36% 0.0 mm 673 W/m2
17:08 30.3 °C 13.1 °C 1017.6 hPa Calm   4.8 km/h 35% 0.0 mm 659 W/m2
17:13 30.4 °C 13.7 °C 1017.6 hPa ENE 7.9 km/h 11.3 km/h 36% 0.0 mm 645 W/m2
17:18 30.4 °C 13.2 °C 1017.6 hPa NE 11.1 km/h 11.3 km/h 35% 0.0 mm 636 W/m2
17:23 30.4 °C 13.2 °C 1017.6 hPa NNW 9.7 km/h 12.9 km/h 35% 0.0 mm 621 W/m2
17:28 30.3 °C 13.6 °C 1017.6 hPa ESE 3.2 km/h 16.1 km/h 36% 0.0 mm 608 W/m2
17:34 30.3 °C 13.6 °C 1017.6 hPa NE 7.9 km/h 16.1 km/h 36% 0.0 mm 601 W/m2
17:39 30.1 °C 13 °C 1017.6 hPa East 4.7 km/h 11.3 km/h 35% 0.0 mm 589 W/m2
17:44 30.1 °C 13.4 °C 1017.3 hPa East 4.7 km/h 6.4 km/h 36% 0.0 mm 582 W/m2
17:49 30.3 °C 12.7 °C 1017.3 hPa NE 19.5 km/h 19.3 km/h 34% 0.0 mm 566 W/m2
17:54 30.3 °C 13.1 °C 1017.3 hPa NNE 1.4 km/h 3.2 km/h 35% 0.0 mm 547 W/m2
18:00 30.4 °C 12.3 °C 1017.3 hPa SE 4.7 km/h 19.3 km/h 33% 0.0 mm 536 W/m2
18:05 30.3 °C 12.7 °C 1017.3 hPa ENE 7.9 km/h 8 km/h 34% 0.0 mm 520 W/m2
18:10 30.4 °C 13.2 °C 1017.3 hPa SSW 1.4 km/h 14.5 km/h 35% 0.0 mm 508 W/m2
18:15 30.5 °C 12.9 °C 1017.3 hPa ENE 4.7 km/h 11.3 km/h 34% 0.0 mm 490 W/m2
18:20 30.4 °C 11.9 °C 1017.3 hPa ENE 1.4 km/h 11.3 km/h 32% 0.0 mm 462 W/m2
18:25 30.2 °C 12.1 °C 1017.3 hPa ENE 4.7 km/h 12.9 km/h 33% 0.0 mm 431 W/m2
18:30 30.1 °C 12.1 °C 1017.3 hPa NE 1.4 km/h 19.3 km/h 33% 0.0 mm 390 W/m2
18:35 30.1 °C 12.5 °C 1017.3 hPa SE 6.4 km/h 14.5 km/h 34% 0.0 mm 357 W/m2
18:40 30 °C 12 °C 1017.3 hPa East 9.7 km/h 19.3 km/h 33% 0.0 mm 339 W/m2
18:45 30.1 °C 11.6 °C 1017.3 hPa ENE 7.9 km/h 12.9 km/h 32% 0.0 mm 318 W/m2
18:50 29.9 °C 11.9 °C 1017.3 hPa NNE 7.9 km/h 14.5 km/h 33% 0.0 mm 288 W/m2
18:55 29.8 °C 11.3 °C 1017.3 hPa NNE 1.4 km/h 4.8 km/h 32% 0.0 mm 269 W/m2
19:00 29.8 °C 12.2 °C 1017.3 hPa ESE 6.4 km/h 6.4 km/h 34% 0.0 mm 269 W/m2
19:06 29.8 °C 11.3 °C 1017.3 hPa East 1.4 km/h 12.9 km/h 32% 0.0 mm 290 W/m2
19:11 29.8 °C 11.8 °C 1017.3 hPa Calm   4.8 km/h 33% 0.0 mm 311 W/m2
19:16 29.9 °C 11.4 °C 1016.9 hPa NE 7.9 km/h 11.3 km/h 32% 0.0 mm 320 W/m2
19:21 29.7 °C 11.2 °C 1016.9 hPa ESE 4.7 km/h 8 km/h 32% 0.0 mm 297 W/m2
19:26 29.6 °C 11.2 °C 1016.9 hPa ESE 4.7 km/h 12.9 km/h 32% 0.0 mm 299 W/m2
19:31 29.6 °C 11.2 °C 1016.9 hPa NE 6.4 km/h 6.4 km/h 32% 0.0 mm 281 W/m2
19:36 29.6 °C 11.2 °C 1016.9 hPa ENE 7.9 km/h 8 km/h 32% 0.0 mm 251 W/m2
19:41 29.6 °C 11.2 °C 1016.9 hPa East 6.4 km/h 11.3 km/h 32% 0.0 mm 209 W/m2
19:46 29.3 °C 10.9 °C 1016.9 hPa NNW 1.4 km/h 12.9 km/h 32% 0.0 mm 183 W/m2
19:51 29.1 °C 10.7 °C 1016.9 hPa ENE 3.2 km/h 8 km/h 32% 0.0 mm 181 W/m2
19:56 28.9 °C 10.5 °C 1016.9 hPa SSE 4.7 km/h 6.4 km/h 32% 0.0 mm 185 W/m2
20:01 28.9 °C 10.5 °C 1016.9 hPa ENE 3.2 km/h 12.9 km/h 32% 0.0 mm 174 W/m2
20:06 28.8 °C 10.5 °C 1016.9 hPa ESE 1.4 km/h 8 km/h 32% 0.0 mm 163 W/m2
20:11 28.7 °C 10.8 °C 1016.9 hPa ESE 6.4 km/h 12.9 km/h 33% 0.0 mm 155 W/m2
20:16 28.6 °C 10.3 °C 1016.9 hPa East 4.7 km/h 6.4 km/h 32% 0.0 mm 142 W/m2
20:21 28.5 °C 10.7 °C 1016.9 hPa SE 7.9 km/h 9.7 km/h 33% 0.0 mm 130 W/m2
20:26 28.4 °C 11.5 °C 1016.9 hPa ENE 13 km/h 12.9 km/h 35% 0.0 mm 120 W/m2
20:31 28.2 °C 11.7 °C 1016.9 hPa ESE 4.7 km/h 4.8 km/h 36% 0.0 mm 98 W/m2
20:36 27.9 °C 11 °C 1016.9 hPa ESE 3.2 km/h 6.4 km/h 35% 0.0 mm 83 W/m2
20:41 27.8 °C 10.9 °C 1016.9 hPa Calm   4.8 km/h 35% 0.0 mm 76 W/m2
20:46 27.8 °C 11.4 °C 1016.9 hPa ENE 6.4 km/h 9.7 km/h 36% 0.0 mm 74 W/m2
20:51 27.6 °C 10.8 °C 1016.9 hPa ENE 3.2 km/h 11.3 km/h 35% 0.0 mm 65 W/m2
20:56 27.3 °C 10.9 °C 1016.9 hPa ENE 3.2 km/h 11.3 km/h 36% 0.0 mm 58 W/m2
21:01 27.2 °C 11.6 °C 1016.9 hPa East 1.4 km/h 4.8 km/h 38% 0.0 mm 49 W/m2
21:06 26.9 °C 11 °C 1016.9 hPa SE 11.3 km/h 11.3 km/h 37% 0.0 mm 40 W/m2
21:11 26.7 °C 11.6 °C 1016.9 hPa ESE 4.7 km/h 4.8 km/h 39% 0.0 mm 33 W/m2
21:21 26.1 °C 11.4 °C 1016.9 hPa Calm   3.2 km/h 40% 0.0 mm 16 W/m2
21:26 25.8 °C 11.2 °C 1016.9 hPa SE 4.7 km/h 12.9 km/h 40% 0.0 mm 14 W/m2
21:31 25.5 °C 11.3 °C 1016.9 hPa Calm   6.4 km/h 41% 0.0 mm 11 W/m2
21:36 25.2 °C 12.1 °C 1017.3 hPa SSW 1.4 km/h 3.2 km/h 44% 0.0 mm 9 W/m2
21:41 24.9 °C 11.5 °C 1017.3 hPa ESE 1.4 km/h 3.2 km/h 43% 0.0 mm 7 W/m2
21:46 24.6 °C 11.9 °C 1017.3 hPa Calm   3.2 km/h 45% 0.0 mm 5 W/m2
21:51 24.3 °C 11.9 °C 1017.3 hPa Calm   1.6 km/h 46% 0.0 mm 0 W/m2
21:56 24 °C 11.7 °C 1017.3 hPa East 1.4 km/h 6.4 km/h 46% 0.0 mm 0 W/m2
22:01 23.8 °C 12.1 °C 1017.3 hPa Calm   1.6 km/h 48% 0.0 mm 0 W/m2
22:06 23.5 °C 12.2 °C 1017.3 hPa Calm   3.2 km/h 49% 0.0 mm 0 W/m2
22:11 23.2 °C 12.5 °C 1017.3 hPa Calm   1.6 km/h 51% 0.0 mm 0 W/m2
22:16 22.7 °C 12.3 °C 1017.3 hPa SE 1.4 km/h 1.6 km/h 52% 0.0 mm 0 W/m2
22:21 22.4 °C 12.3 °C 1017.6 hPa Calm   3.2 km/h 53% 0.0 mm 0 W/m2
22:26 22.1 °C 12.1 °C 1017.6 hPa SE 3.2 km/h 3.2 km/h 53% 0.0 mm 0 W/m2
22:31 21.8 °C 12.1 °C 1017.6 hPa Calm     54% 0.0 mm 0 W/m2
22:36 21.6 °C 11.9 °C 1017.6 hPa SE 1.4 km/h 1.6 km/h 54% 0.0 mm 0 W/m2
22:41 21.3 °C 11.9 °C 1017.6 hPa Calm   3.2 km/h 55% 0.0 mm 0 W/m2
22:46 21.1 °C 12 °C 1017.6 hPa SE 1.4 km/h 1.6 km/h 56% 0.0 mm 0 W/m2
22:51 20.9 °C 12.1 °C 1017.6 hPa SE 1.4 km/h 3.2 km/h 57% 0.0 mm 0 W/m2
22:56 20.7 °C 12.1 °C 1017.6 hPa SE 1.4 km/h 3.2 km/h 58% 0.0 mm 0 W/m2
23:01 20.5 °C 11.7 °C 1017.6 hPa SE 1.4 km/h 3.2 km/h 57% 0.0 mm 0 W/m2
23:06 20.4 °C 12.1 °C 1017.6 hPa SE 1.4 km/h 3.2 km/h 59% 0.0 mm 0 W/m2
23:11 20.3 °C 12 °C 1018.0 hPa SE 1.4 km/h 1.6 km/h 59% 0.0 mm 0 W/m2
23:16 20.1 °C 11.6 °C 1018.0 hPa Calm   3.2 km/h 58% 0.0 mm 0 W/m2
23:21 19.9 °C 11.6 °C 1018.0 hPa Calm   1.6 km/h 59% 0.0 mm 0 W/m2
23:26 19.8 °C 11.6 °C 1018.0 hPa Calm     59% 0.0 mm 0 W/m2
23:31 19.6 °C 11.9 °C 1018.0 hPa Calm   1.6 km/h 61% 0.0 mm 0 W/m2
23:36 19.4 °C 11.7 °C 1018.0 hPa Calm     61% 0.0 mm 0 W/m2
23:41 19.3 °C 11.6 °C 1018.0 hPa Calm     61% 0.0 mm 0 W/m2
23:46 19.1 °C 11.6 °C 1018.0 hPa Calm     62% 0.0 mm 0 W/m2
23:51 18.9 °C 11.5 °C 1018.0 hPa Calm     62% 0.0 mm 0 W/m2
23:56 18.7 °C 11.5 °C 1018.0 hPa Calm     63% 0.0 mm 0 W/m2
Juneau County Weather
Compliments of Weather Underground - 4 mb